Cloud_Cover
48 88 100 100 100 100 100 100 100 100 100 100 100 100 100 100 100 100 52 99 100 100 100 100 100 100 100 100 97 73 42 100 100 100 63 89 82 100 100 67 5 17 14 30
65 100 100 100 100 100 95 100 100 100 100 100 100 100 100 100 100 100 100 100 100 100 100 100 100 100 100 100 100 100 100 100 100 100 99 99 100 84 100 100 100 78 84 5
91 100 100 100 100 100 84 100 100 100 100 100 100 100 100 100 100 100 100 81 97 100 100 100 100 100 100 100 100 100 100 100 99 100 96 52 43 6 8 14 82 100 100 28
100 100 100 100 100 100 93 100 100 100 100 100 100 100 100 100 100 100 100 100 100 100 100 100 100 100 100 100 100 100 100 100 94 58 5 5 5 6 5 5 2 5 12 55
100 100 100 100 99 100 100 100 100 100 100 100 100 100 99 100 100 100 100 100 100 100 100 100 100 100 100 100 100 100 100 100 83 99 40 5 5 5 6 28 78 100 54 48
100 100 100 100 100 100 97 100 98 100 100 100 100 100 78 100 100 100 100 100 100 100 77 84 94 100 100 100 100 100 99 98 74 29 33 58 73 97 98 100 100 100 100 100
100 100 100 100 100 100 100 100 100 100 100 100 100 100 93 100 100 96 88 93 100 73 44 39 40 64 89 98 98 100 90 15 27 6 5 5 5 11 63 95 100 100 100 100
100 100 100 100 100 100 100 99 99 90 35 100 100 100 100 100 100 100 81 58 40 64 95 71 37 51 25 13 21 36 25 29 59 26 5 5 17 38 100 98 94 100 100 99
100 100 100 100 100 100 100 100 61 100 100 100 100 100 100 100 100 100 100 100 100 100 100 83 51 19 8 7 13 28 10 5 6 11 10 23 61 81 82 38 45 85 88 99
100 100 100 99 99 100 100 100 98 61 97 87 23 100 100 100 100 100 100 100 100 100 100 68 51 34 40 34 43 55 19 8 10 18 48 56 16 17 29 52 81 100 62 24
100 100 100 70 98 93 100 100 100 100 49 100 99 38 100 100 100 100 100 100 100 100 100 100 100 100 74 90 75 74 27 8 26 23 7 94 27 33 76 64 5 22 44 75
13 78 100 100 72 90 94 75 56 100 100 91 100 100 100 100 100 100 100 100 100 100 100 100 98 67 84 99 71 43 23 14 78 73 35 7 4 5 5 0 0 10 79 99
40 24 100 100 100 100 100 100 100 100 99 100 97 80 100 100 100 100 100 90 77 94 100 100 100 100 100 100 100 94 21 5 7 16 5 4 2 0 0 44 16 14 21 50
55 35 7 100 100 100 100 100 100 94 86 100 94 69 31 51 94 82 56 60 100 100 52 11 42 66 97 100 62 51 5 5 3 5 3 0 0 6 3 94 100 100 93 65
100 100 100 80 6 24 60 45 24 46 67 23 91 100 93 98 100 99 100 100 100 100 78 99 19 5 4 9 9 4 4 1 5 0 4 21 49 90 96 87 100 97 42 44
22 64 46 55 97 100 83 14 5 99 100 100 90 100 100 100 100 100 100 100 86 44 18 100 82 38 5 5 6 17 40 22 5 5 16 18 50 64 82 100 100 100 100 99
51 30 32 40 26 100 100 100 52 78 26 93 100 100 100 100 100 100 70 32 13 27 64 99 60 13 5 5 13 27 51 81 61 73 50 30 54 67 87 100 100 100 100 100
78 77 100 100 100 94 100 93 84 100 100 100 100 100 100 100 99 100 100 100 100 100 100 22 5 13 5 5 5 24 95 100 100 100 100 99 94 94 100 100 100 100 100 100
96 92 97 99 100 100 100 100 100 100 100 99 92 100 72 76 100 100 85 44 52 16 67 90 27 13 89 63 5 21 87 100 100 100 100 100 100 100 100 100 100 100 100 100
100 100 100 100 100 100 100 100 100 100 100 100 100 92 54 14 65 78 100 100 85 19 10 31 5 30 100 78 42 70 99 100 100 100 100 100 100 100 100 100 100 100 100 91
100 100 100 100 100 100 100 100 100 100 100 100 91 83 100 100 100 100 75 12 10 29 18 54 66 12 58 16 89 100 100 100 100 100 100 100 100 100 100 95 94 22 2 3
66 83 100 100 100 100 100 100 100 100 100 100 100 73 95 100 98 100 100 100 95 61 48 62 21 12 64 100 100 100 100 100 100 100 100 99 93 48 4 1 0 0 0 0
99 70 99 32 64 74 91 94 100 82 98 58 46 60 74 76 100 100 100 100 100 75 35 24 47 100 100 100 100 100 100 100 84 61 29 16 5 5 5 1 0 0 0 0
64 57 100 92 100 100 100 76 33 84 82 52 62 87 100 100 100 100 100 100 100 100 34 19 39 100 100 100 100 100 100 71 33 5 36 32 5 5 8 6 5 5 0 5
100 97 51 45 40 71 50 100 100 100 84 76 84 97 100 100 100 97 90 100 100 100 89 6 43 100 100 100 100 77 36 49 57 22 5 5 5 7 32 37 5 5 5 5
38 8 41 62 65 17 64 15 35 68 88 85 72 93 100 100 100 100 100 80 74 96 81 22 100 100 100 100 99 37 88 94 87 60 5 5 5 42 59 52 5 5 5 10